Погода в Ашхабаде

Поиск расширенной информации на нашем сайте:

Полезная информация:

Новости сайта



02.01.2020
Опубликован Долгосрочный прогноз погоды по городам России и ближнего зарубежья на январь 2020 года.
Карты: Прогноз на январь и февраль 2020 года, Сравнение прогнозируемой аномалии приземной температуры воздуха на январь 2020 года по разным моделям.




Погода в Ашхабаде - сегодня

Время (UTC), дата Ветер
(°,м/с) 
Видим.   Явления Облачность Т
(°С)
Тd
(°С)
f(%) Тe
(°С)
Pmin
(гПа)
dP
(гПа)
Po
(мм)
O2
(г/м3)
Тmin Tmax R s Состояние
почвы
06 04.06.20 310 (СЗ) 10 км    1/0 средняя 
[Ac trans]
+36.4 +10.4 21 +38  1004.7  1.3  736  260  +29         
09 04.06.20 300 (СЗ) 10 км    3/3 2000 м 
[Cu med, cong]
+40 +8.4 15 +40  1004.6  0.1  737  257           
12 04.06.20 290 (З) 10 км    6/3 1500 м кучево-дожд., средняя 
[Cb cap|Ac As]
+41.6 +4.3 10 +42  1004.3  -0.2  736  257           
15 04.06.20 270 (З) 10 км    3/0 средняя 
[Ac trans]
+39.4 +7.4 14 +39  1004.9  0.5  737  258    +42.4       
18 04.06.20 240 (ЮЗ) 10 км    ясно 
+34.5 +8.2 20 +35  1006.6  1.3  738  263    +42.4       
21 04.06.20 280 (З) 10 км    4/0 верхняя 
[Ci fib]
+31.2 +10 27 +33  1006.7  -0.1  738  265           
00 05.06.20 310 (СЗ) 10 км    ясно 
+28.9 +14.6 42 +37  1007.9  738  266           
03 05.06.20 270 (З) 10 км    4/0 средняя 
[Ac trans]
+30.2 +15.5 41 +40  1009.1  1.2  739  265  +27.4        сухая 
06 05.06.20 340 (С) 10 км    3/0 средняя 
[Ac trans]
+33.2 +14.8 33 +42  1008.5  -0.3  739  263  +27.4         
09 05.06.20 340 (С) 10 км    1/1 2000 м 
[Cu med, cong]
+37.3 +12.2 22 +42  1007.4  -0.8  738  260           
12 05.06.20 140 (ЮВ) 10 км    4/1 1500 м верхняя 
[Cu med, cong|Ci]
+40 +9.9 17 +41  1005.8  -1.4  737  257           
15 05.06.20 330 (СЗ) 10 км    1/0 средняя 
[Ac trans]
+37.7 +13.3 23 +44  1006  0.2  738  259    +41       
18 05.06.20 300 (СЗ) 10 км    ясно 
+33.2 +16.3 36 +45  1008  1.6  739  262    +41       
21 05.06.20 330 (СЗ) 10 км    6/0 средняя, верхняя 
[Ac und|Ci fib]
+28.6 +16.8 49 +41  1010.6  2.1  740  266           
00 06.06.20 340 (С) 10 км    3/0 средняя 
[Ac trans]
+26.6 +16.8 55 +39  1011.5  0.8  741  268           
03 06.06.20 340 (С) 10 км    5/0 средняя 
[Ac trans]
+25.6 +16.9 59 +38  1013.1  1.4  742  270  +25.6        сухая 
06 06.06.20 070 (В) 10 км    3/0 средняя 
[Ac trans]
+30.8 +17.1 44 +44  1012.8  0.1  742  265  +25.6         
09 06.06.20 010 (С) 10 км    9/5 1500 м средняя 
[Sc|Ac trans]
+33 +16 36 +44  1011.6  -1.9  741  263           
12 06.06.20 260 (З) 10 км    10/0 кучево-дожд., средняя 
[Cb cap|Ac und]
+32.6 +15.9 37 +43  1010.9  -0.7  741  263           
15 06.06.20 330 (СЗ) 10 км  в посл. час гроза  10/6 1500 м кучево-дожд., средняя 
[Cb cap|Ac und]
+31 +15.1 38 +40  1011.1  741  265    +34  0.0     
18 06.06.20 300 (СЗ) 10 км  в посл. час ливневой дождь{гроза}  10/6 1500 м кучево-дожд., средняя 
[Cb cap|Ac und]
+28 +13.5 41 +34  1012.7  1.3  742  268    +34  0.0     
21 06.06.20 320 (СЗ) 10 км  {гроза}  9/5 1500 м кучево-дожд., средняя, верхняя 
[Cb cap|Ac und|Ci]
+27 +14.1 45 +34  1011.5  -1.2  741  269           
00 07.06.20 010 (С) 10 км  гроза, ливневой дождь  10/8 1200 м кучево-дожд., средняя 
[Cb cap|Ac und]
+22.6 +16.4 68 +34  1012.8  0.9  742  272           
03 07.06.20 тихо ()   10 км  слаб. ливневой дождь{гроза}  10/6 1500 м кучево-дожд., средняя 
[Cb cap|Ac und]
+22.7 +16.7 69 +35  1014.2  1.4  743  273  +21    0.7     
06 07.06.20 050 (СВ) 10 км  слаб. ливневой дождь{гроза}  10/6 1170 м кучево-дожд., средняя 
[Cb cap|Ac und]
+21.2 +18.1 82 +36  1015.9  1.5  744  274  +21         
Время (UTC), дата Ветер
(°,м/с) 
Видим.   Явления Облачность Т
(°С)
Тd
(°С)
f(%) Тe
(°С)
Pmin
(гПа)
dP
(гПа)
Po
(мм)
O2
(г/м3)
Тmin Tmax R s Состояние
почвы

Для получения пояснительной информации подведите курсор к названию столбца.

ПОГОДА в Ашхабаде - архив

Всё, что Вы хотите узнать о погоде в Ашхабаде - удобно и подробно!

Выберите нужную дату (начиная с 1 января 2019* года) и нажмите кнопку "Найти".
Будут отображены архивные сводки погоды по пункту Ашхабад, начиная с указанной даты.


Отображать данные в формате CSV (для использования в таблицах Excel)


Внимание! Наш архив погоды предназначен исключительно для личного некоммерческого использования в познавательных целях. Если Вам необходимы официальные справки о состоянии погоды (для производственных, юридических, коммерческих и т.п. целей), обращайтесь в органы Росгидромета.

*Примечание: данная дата относится к архиву по метеостанциям СССР (Россия, СНГ, Балтия).
Архив по метеостанциям Зарубежной Европы и Азии (кроме Китая) хранится 10 дней, по другим регионам земного шара (Китай, Африка, Америка, Австралия, Океания) - 1 день.

Ашхабад - район местоположения метеостанции


Название, широта, долгота, высота метеостанции:
Ашхабад (город) 38°ш. 58.3°д. 208 м над ур. моря [Туркменистан]

Дополнительная информация

В oтличие oт бoльшинства пoгoдных сайтoв мы публикуем пoдрoбную метеoинфoрмацию в детальнoм прoфессиoнальнoм фoрмате.

Характеристики температуры и влажнoсти вoздуха измеряются на высoте 2 м в тени вдали oт зданий и деревьев.
Скoрoсть ветра измеряется на высoте 10 м (на урoвне рoста челoвека скoрoсть ветра ниже в 1.5-2 раза). Если метеoстанция нахoдится в гoрoде или в лесу, тo скoрoсть ветра занижена на 2-4 м/с пo сравнению с oткрытым местoм. Скoрoсть ветра над акватoриями крупных рек и oзёр, а также на вершинах хoлмoв на 2-5 м/с выше, чем в oбычных услoвиях.
Атмoсфернoе давление в разных тoчках местнoсти мoжет значительнo oтличаться oт давления на метеoстанции, в зависимoсти oт услoвий рельефа (при пoдъёме на 10 м давление пoнижается примернo на 1 мм рт.ст.).